K74 Muensterschwarzach Observatory, Schwarzach.  Observer C. Gerhard.  0.30-m
    f/3.75 reflector + CMO.
L01 Visnjan Observatory, Tican.  Observer K. Korlevic.  1.0-m f/2.9 reflector
    + CCD.
M60 Virgil Observatory, Loiano.  Observer A. Carbognani.  0.3-m f/4.0
    Reflector + CCD.
M63 RPF Observatory, Gagliano del Capo.  Observer D. Licchelli.  0.30-m f/5.3
    reflector + CCD.
O75 ISON-Hureltogoot Observatory.  Observer L. Elenin.  0.40-m f/2.4 reflector
    + CCD.
Q06 Tarui Observatory, Tarui.  Observer H. Watanabe.  0.35-m f/1.9 Schmidt-
    Cassegrain + CMO.
T05 ATLAS-HKO, Haleakala.  Observers L. Denneau, R. Siverd, J. Tonry, H.
    Weiland.  Measurers L. Denneau, N. Erasmus, A. Fitzsimmons, A. Lawrence,
    J. Robinson, R. Siverd, J. Tonry, H. Weiland.  0.5-m Reflector + CCD.
V27 North Mesa Observatory, Los Alamos.  Observer B. K. Kendrick.  0.25-m f/6
    reflector + CCD.
Orbital elements:
2024 CT                                                  Earth MOID = 0.0037 AU
Epoch 2023 Sept. 13.0 TT = JDT 2460200.5                Veres                   
M 296.16252              (2000.0)            P               Q                  
n   0.63875509     Peri.  117.20628     +0.21346598     -0.97672425             
a   1.3353029      Node   320.45007     +0.88424894     +0.20231549             
e   0.3450077      Incl.    1.89211     +0.41537464     +0.07126131             
P   1.54           H   26.79          G   0.15           U   6                  
Residuals in seconds of arc
240205 703  0.2+  0.5-    240205 I52  0.1+  0.3+    240205 K74  0.1+  0.0
240205 703  0.1-  0.0     240205 I52  0.1+  0.3+    240205 033  0.3+  0.2+
240205 703  0.2-  0.1+    240205 900  0.1-  0.6-    240205 033  0.1+  0.3+
240205 703  0.1-  0.0     240205 900  1.4+  0.6+    240205 033  0.4+  0.2+
240205 I52  0.0   0.2+    240205 900  0.3+  0.9+    240205 033  0.0   0.7+
240205 I52  0.1-  0.3+    240205 Q06  0.0   0.2-    240205 033  0.2+  0.1+
240205 I52  0.1-  0.1+    240205 Q06  0.0   0.2+    240205 C94  0.2+  0.3+
240205 I52  0.0   0.1+    240205 Q06  0.0   0.5+    240205 C94  0.2+  0.1+
240205 I52  0.0   0.1+    240205 C94  0.4-  0.7-    240205 K35  0.0   0.2+
240205 I52  0.2+  0.1+    240205 C94  0.6-  1.6-    240205 C94  0.0   0.0
240205 I52  0.0   0.1+    240205 C94  0.6+  1.3-    240205 C94  0.1-  0.4-
240205 I52  0.1+  0.1+    240205 C94  0.0   0.8-    240205 C94  0.1+  0.6-
240205 V27  0.8-  0.8+    240205 C94  0.1+  1.3-    240205 C94  0.2+  0.8-
240205 V27  0.4-  0.7-    240205 C94  0.6-  1.6+    240205 C94  0.0   0.7-
240205 V27  0.3+  0.4+    240205 C94  0.1-  0.6-    240205 K35  0.1+  0.2+
240205 V27  0.3-  0.1-    240205 K61  0.1+  0.5-    240205 K35  0.0   0.1+
240205 V27  0.3-  0.7+    240205 K61  0.1+  0.3-    240205 K35  0.0   0.1+
240205 V27  0.3+  0.0     240205 K61  0.1-  0.1-    240205 M63  0.0   0.1-
240205 T05  0.0   0.2+    240205 K74  0.0   0.3+    240205 M63  0.0   0.5+
240205 V27  0.5-  0.5+    240205 K74  0.0   0.2+    240205 M63  0.0   0.0
240205 T05  0.1-  0.5+    240205 O75  0.1-  0.6+    240205 M60  0.2+  0.0
240205 H21  0.1+  0.1-    240205 K74  0.2+  0.1+    240205 M60  0.2+  0.2+
240205 T05  0.0   0.4+    240205 O75  0.2+  0.1+    240205 M60  0.1-  0.7+
240205 H21  0.1+  0.2-    240205 K74  0.3+  0.1+    240205 M60  0.2-  0.2-
240205 H21  0.2+  0.1-    240205 G00  0.4+  0.6-    240205 L01  0.1-  0.4+
240205 H21  0.1+  0.1-    240205 G00  0.1-  0.4+    240205 L01  0.2-  0.4-
240205 H21  0.0   0.0     240205 O75  0.2-  0.5+    240205 L01  0.4-  0.4+
240205 H21  0.1+  0.1-    240205 K74  0.0   0.1+    240205 L01  0.3-  0.0
240205 T05  0.5-  0.3+    240205 G00  0.1+  1.1-    240205 L01  0.5-  0.3+
240205 I52  0.0   0.2+    240205 K74  0.1-  0.4+    240205 L01  0.3-  0.1+
240205 I52  0.0   0.1+    240205 K74  0.5+  0.1-
Ephemeris:
2024 CT                  a,e,i = 1.34, 0.35, 2                   q = 0.8746
Date    TT    R. A. (2000) Decl.     Delta      r    Elong.  Phase     V
2024 01 06    21 54 49.6 -04 08 56   0.1410  0.8896    45.2   128.4    27.8
...
2024 01 21    22 06 35.1 -00 27 36   0.06515 0.9313    34.8   142.9    28.0
...
2024 01 29    22 13 36.5 +05 33 30   0.02695 0.9623    32.7   146.4    26.7
...
2024 02 04    07 49 09.8 +67 57 23   0.0048940.9886   127.1    52.7    17.2
2024 02 05    09 28 06.2 +37 07 12   0.0079420.9932   158.8    21.0    17.3
2024 02 06    09 44 04.1 +24 35 06   0.01212 0.9979   169.0    10.8    17.9
...
2024 02 12    09 59 06.5 +09 27 31   0.04004 1.0268   173.3     6.4    20.4
...
2024 02 20    10 01 40.0 +06 30 38   0.07938 1.0676   174.8     4.8    21.8
...
2024 03 06    10 04 29.4 +05 23 37   0.1613  1.1484   164.5    13.4    23.9
M. P. C. Staff               (C) Copyright 2024 MPC           M.P.E.C. 2024-C55
    
    
More information about the Iaude
mailing list